Weather History for KJMR - November, 2014

Change the Weather History Date:

Wednesday, November 12, 2014

  Actual Average Record
Temperature  
Mean Temperature 19 °F -  
Max Temperature 26 °F 36 °F 65 °F (1987)
Min Temperature 12 °F 18 °F -11 °F (1986)
Degree Days  
Heating Degree Days 46    
Moisture  
Dew Point 15 °F    
Average Humidity 77    
Maximum Humidity 86    
Minimum Humidity 64    
Precipitation  
Precipitation 0.00 in - - ()
Sea Level Pressure  
Sea Level Pressure 30.26 in    
Wind  
Wind Speed 6 mph (WNW)    
Max Wind Speed 13 mph    
Max Gust Speed 18 mph    
Visibility 10 miles    
Events Snow    
Averages and records for this station are not official NWS values.
T = Trace of Precipitation, MM = Missing Value Source: NWS Daily Summary

Daily Weather History Graph

Daily Weather History Graph

Search for Another Location

Airport or City:

Trip Planner

Search our weather history database for the weather conditions in past years. The results will help you decide how hot, cold, wet, or windy it might be!

Date:

Astronomy

Nov. 12, 2014 Rise Set
Actual Time 7:09 AM CST 4:44 PM CST
Civil Twilight 6:36 AM CST 5:16 PM CST
Nautical Twilight 6:00 AM CST 5:52 PM CST
Astronomical Twilight 5:25 AM CST 6:27 PM CST
Moon 10:07 PM CST (11/12) 11:53 AM CST (11/12)
Length of Visible Light 10h 40m
Length of Day
9h 35m
Waning Gibbous, 68% of the Moon is Illuminated
Nov 12
Waning Gibbous
Nov 14
Last Quarter
Nov 22
New
Nov 29
First Quarter
Dec 6
Full

Hourly Weather History & Observations

Time (CST) Temp. Windchill Dew Point Humidity Pressure Visibility Wind Dir Wind Speed Gust Speed Precip Events Conditions
12:16 AM 17.6 °F 8.2 °F 12.2 °F 79% 30.24 in 10.0 mi West 6.9 mph - N/A   Mostly Cloudy
12:36 AM 17.6 °F 9.3 °F 12.2 °F 79% 30.24 in 7.0 mi WNW 5.8 mph - N/A Snow Light Snow
12:56 AM 17.6 °F 8.2 °F 12.2 °F 79% 30.24 in 7.0 mi West 6.9 mph - N/A Snow Light Snow
1:16 AM 17.6 °F 10.7 °F 12.2 °F 79% 30.24 in 7.0 mi WNW 4.6 mph - N/A Snow Light Snow
1:35 AM 17.6 °F 8.2 °F 12.2 °F 79% 30.24 in 10.0 mi WNW 6.9 mph - N/A Snow Light Snow
1:56 AM 15.8 °F 6.1 °F 10.4 °F 79% 30.25 in 10.0 mi WNW 6.9 mph - N/A   Scattered Clouds
2:16 AM 14.0 °F 5.1 °F 10.4 °F 86% 30.25 in 10.0 mi WNW 5.8 mph - N/A Snow Light Snow
2:36 AM 14.0 °F 8.2 °F 10.4 °F 86% 30.25 in 10.0 mi WNW 3.5 mph - N/A   Mostly Cloudy
2:56 AM 14.0 °F 6.5 °F 10.4 °F 86% 30.25 in 10.0 mi West 4.6 mph - N/A   Mostly Cloudy
3:16 AM 14.0 °F 8.2 °F 10.4 °F 86% 30.25 in 10.0 mi West 3.5 mph - N/A   Mostly Cloudy
3:36 AM 14.0 °F 8.2 °F 10.4 °F 86% 30.25 in 10.0 mi West 3.5 mph - N/A   Mostly Cloudy
3:55 AM 14.0 °F - 10.4 °F 86% 30.25 in 10.0 mi Calm Calm - N/A   Mostly Cloudy
4:16 AM 14.0 °F 5.1 °F 10.4 °F 86% 30.24 in 10.0 mi NW 5.8 mph - N/A   Mostly Cloudy
4:36 AM 14.0 °F 8.2 °F 10.4 °F 86% 30.24 in 10.0 mi WNW 3.5 mph - N/A   Mostly Cloudy
4:56 AM 14.0 °F 8.2 °F 10.4 °F 86% 30.24 in 10.0 mi NW 3.5 mph - N/A   Overcast
5:16 AM 14.0 °F 6.5 °F 8.6 °F 79% 30.24 in 10.0 mi NW 4.6 mph - N/A   Scattered Clouds
5:36 AM 12.2 °F - 8.6 °F 85% 30.24 in 10.0 mi Calm Calm - N/A   Clear
5:56 AM 12.2 °F - 8.6 °F 85% 30.24 in 10.0 mi Calm Calm - N/A   Clear
6:16 AM 12.2 °F - 8.6 °F 85% 30.24 in 10.0 mi Calm Calm - N/A   Clear
6:36 AM 12.2 °F 6.1 °F 8.6 °F 85% 30.24 in 10.0 mi WSW 3.5 mph - N/A   Scattered Clouds
6:56 AM 14.0 °F 6.5 °F 10.4 °F 86% 30.24 in 10.0 mi West 4.6 mph - N/A   Mostly Cloudy
7:16 AM 17.6 °F 6.4 °F 12.2 °F 79% 30.25 in 10.0 mi West 9.2 mph - N/A   Overcast
7:36 AM 17.6 °F 9.3 °F 12.2 °F 79% 30.25 in 10.0 mi West 5.8 mph - N/A   Overcast
7:56 AM 17.6 °F 8.2 °F 12.2 °F 79% 30.26 in 10.0 mi West 6.9 mph - N/A   Overcast
8:16 AM 17.6 °F 8.2 °F 12.2 °F 79% 30.26 in 10.0 mi West 6.9 mph - N/A   Mostly Cloudy
8:36 AM 17.6 °F 7.3 °F 12.2 °F 79% 30.26 in 4.0 mi West 8.1 mph - N/A Snow Light Snow
8:56 AM 17.6 °F 7.3 °F 12.2 °F 79% 30.26 in 7.0 mi West 8.1 mph - N/A   Overcast
9:16 AM 19.4 °F 11.5 °F 14.0 °F 80% 30.26 in 7.0 mi West 5.8 mph - N/A   Overcast
9:36 AM 21.2 °F 13.6 °F 14.0 °F 74% 30.26 in 7.0 mi West 5.8 mph - N/A Snow Light Snow
9:56 AM 21.2 °F 10.9 °F 15.8 °F 80% 30.26 in 7.0 mi West 9.2 mph - N/A Snow Light Snow
10:16 AM 21.2 °F 12.6 °F 15.8 °F 80% 30.25 in 10.0 mi West 6.9 mph - N/A Snow Light Snow
10:36 AM 24.8 °F 15.3 °F 17.6 °F 74% 30.25 in 10.0 mi West 9.2 mph - N/A   Overcast
10:55 AM 24.8 °F 15.3 °F 17.6 °F 74% 30.25 in 10.0 mi West 9.2 mph - N/A   Overcast
11:16 AM 26.6 °F 19.1 °F 19.4 °F 74% 30.25 in 10.0 mi WNW 6.9 mph - N/A   Mostly Cloudy
11:36 AM 26.6 °F 17.5 °F 17.6 °F 69% 30.25 in 10.0 mi NW 9.2 mph - N/A   Mostly Cloudy
11:54 AM 26.6 °F 18.2 °F 17.6 °F 69% 30.25 in 10.0 mi WNW 8.1 mph - N/A   Mostly Cloudy
12:16 PM 26.6 °F 17.5 °F 17.6 °F 69% 30.25 in 10.0 mi West 9.2 mph - N/A   Mostly Cloudy
12:35 PM 26.6 °F 17.5 °F 17.6 °F 69% 30.25 in 10.0 mi West 9.2 mph - N/A   Mostly Cloudy
12:56 PM 26.6 °F 18.2 °F 17.6 °F 69% 30.25 in 10.0 mi WNW 8.1 mph - N/A   Mostly Cloudy
1:16 PM 26.6 °F 17.5 °F 17.6 °F 69% 30.25 in 10.0 mi WNW 9.2 mph - N/A   Mostly Cloudy
1:34 PM 26.6 °F 19.1 °F 17.6 °F 69% 30.25 in 10.0 mi WNW 6.9 mph - N/A   Mostly Cloudy
1:56 PM 26.6 °F 18.2 °F 17.6 °F 69% 30.25 in 10.0 mi West 8.1 mph - N/A Snow Light Snow
2:16 PM 26.6 °F 16.8 °F 17.6 °F 69% 30.24 in 10.0 mi West 10.4 mph - N/A   Mostly Cloudy
2:36 PM 26.6 °F 18.2 °F 17.6 °F 69% 30.25 in 10.0 mi West 8.1 mph - N/A   Mostly Cloudy
2:56 PM 26.6 °F 18.2 °F 17.6 °F 69% 30.25 in 10.0 mi West 8.1 mph - N/A   Mostly Cloudy
3:16 PM 26.6 °F 18.2 °F 17.6 °F 69% 30.25 in 10.0 mi West 8.1 mph - N/A   Mostly Cloudy
3:35 PM 26.6 °F 17.5 °F 17.6 °F 69% 30.26 in 10.0 mi NNW 9.2 mph - N/A Snow Light Snow
3:56 PM 26.6 °F 19.1 °F 17.6 °F 69% 30.26 in 10.0 mi NW 6.9 mph - N/A   Scattered Clouds
4:16 PM 26.6 °F 17.5 °F 15.8 °F 64% 30.26 in 10.0 mi WNW 9.2 mph - N/A   Scattered Clouds
4:36 PM 26.6 °F 18.2 °F 15.8 °F 64% 30.26 in 10.0 mi WNW 8.1 mph - N/A   Mostly Cloudy
4:56 PM 26.6 °F 18.2 °F 15.8 °F 64% 30.27 in 10.0 mi WNW 8.1 mph - N/A   Mostly Cloudy
5:16 PM 24.8 °F 16.9 °F 14.0 °F 64% 30.27 in 10.0 mi WNW 6.9 mph - N/A   Mostly Cloudy
5:36 PM 24.8 °F 16.9 °F 14.0 °F 64% 30.28 in 10.0 mi WNW 6.9 mph - N/A   Scattered Clouds
5:56 PM 23.0 °F 14.7 °F 14.0 °F 68% 30.28 in 10.0 mi WNW 6.9 mph - N/A   Scattered Clouds
6:16 PM 24.8 °F 17.9 °F 15.8 °F 69% 30.28 in 10.0 mi WNW 5.8 mph - N/A   Scattered Clouds
6:35 PM 24.8 °F 17.9 °F 15.8 °F 69% 30.28 in 10.0 mi WNW 5.8 mph - N/A   Scattered Clouds
6:56 PM 23.0 °F 13.9 °F 14.0 °F 68% 30.28 in 10.0 mi West 8.1 mph - N/A   Scattered Clouds
7:16 PM 21.2 °F 13.6 °F 14.0 °F 74% 30.28 in 10.0 mi West 5.8 mph - N/A   Clear
7:36 PM 21.2 °F 13.6 °F 14.0 °F 74% 30.29 in 7.0 mi West 5.8 mph - N/A Snow Light Snow
7:56 PM 21.2 °F 13.6 °F 15.8 °F 80% 30.29 in 10.0 mi WNW 5.8 mph - N/A   Scattered Clouds
8:16 PM 21.2 °F 14.9 °F 17.6 °F 86% 30.29 in 10.0 mi WNW 4.6 mph - N/A   Clear
8:36 PM 21.2 °F 14.9 °F 17.6 °F 86% 30.29 in 10.0 mi WNW 4.6 mph - N/A   Scattered Clouds
8:55 PM 21.2 °F 14.9 °F 17.6 °F 86% 30.29 in 10.0 mi WNW 4.6 mph - N/A   Scattered Clouds
9:16 PM 21.2 °F 13.6 °F 17.6 °F 86% 30.29 in 10.0 mi WNW 5.8 mph - N/A   Clear
9:36 PM 21.2 °F 12.6 °F 17.6 °F 86% 30.30 in 10.0 mi NW 6.9 mph - N/A   Scattered Clouds
9:56 PM 21.2 °F 14.9 °F 17.6 °F 86% 30.30 in 10.0 mi WNW 4.6 mph - N/A   Scattered Clouds
10:16 PM 23.0 °F 11.1 °F 19.4 °F 86% 30.30 in 10.0 mi NNW 12.7 mph - N/A   Scattered Clouds
10:36 PM 24.8 °F 13.4 °F 19.4 °F 80% 30.30 in 10.0 mi NNW 12.7 mph 18.4 mph N/A   Scattered Clouds
10:56 PM 24.8 °F 14.0 °F 19.4 °F 80% 30.31 in 10.0 mi NNW 11.5 mph 17.3 mph N/A   Scattered Clouds
11:16 PM 23.0 °F 13.1 °F 17.6 °F 80% 30.31 in 10.0 mi NNW 9.2 mph - N/A   Scattered Clouds
11:36 PM 23.0 °F 11.7 °F 17.6 °F 80% 30.31 in 10.0 mi NNW 11.5 mph 16.1 mph N/A   Clear
11:55 PM 23.0 °F 13.1 °F 17.6 °F 80% 30.32 in 10.0 mi NNW 9.2 mph - N/A   Clear